[[{"header":{"parameterUnit":"m.s-1","parameterCategory":1,"la1":30.2991,"la2":30.254,"lo1":-89.0895,"lo2":-89.0444,"dy":0.0017,"dx":0.0017,"nx":28,"ny":28,"refTime":"2025-08-04T09:00:00:Z","depth":0,"parameterNumber":2,"parameterNumberName":"U-component_of_WINDS"},"data":[0,0,0,0,0,0,0,0,0,0,0,0,0,0,0,0,0,0,0,0,0,0,0,0,0,0,0,0,0,0,0,0,0,0,0,0,0,0,0,0,0,0,0,0,0,0,0,0,0,0,0,0,0,0,0,0,0,0,-0.6862,-0.6862,0,-0.6873,-0.6873,-0.6873,-0.683,-0.6829,-0.6827,-0.6826,-0.6842,-0.6843,-0.6845,0,0,0,0,0,0,0,0,0,0,0,0,0,-0.6804,-0.6805,-0.6862,-0.6862,-0.6862,-0.6873,-0.6873,-0.6873,-0.683,-0.6829,-0.6827,-0.6825,-0.6841,-0.6843,-0.6845,0,0,0,0,0,0,0,0,0,0,0,0,0,-0.6824,-0.6805,-0.6862,-0.6841,-0.684,-0.6873,-0.6873,-0.6873,-0.683,-0.6829,-0.6827,-0.6825,-0.684,-0.6843,-0.6845,-0.6899,0,0,-0.6853,-0.6854,0,0,0,0,0,0,0,0,-0.6823,-0.6826,-0.6844,-0.6843,-0.6841,-0.6848,-0.6859,-0.6882,-0.6831,-0.6834,-0.6826,-0.6824,-0.6846,-0.6847,-0.6854,-0.69,-0.6901,-0.6853,-0.6854,-0.6855,-0.6856,0,0,0,0,0,0,0,-0.6821,-0.6825,-0.6866,-0.6845,-0.6843,-0.6833,-0.6833,-0.6863,-0.6851,-0.6834,-0.6831,-0.6832,-0.6844,-0.6852,-0.6854,-0.6901,-0.6853,-0.6855,-0.6857,-0.6857,-0.699,-0.6992,0,0,0,0,0,0,-0.6822,-0.6824,-0.6866,-0.6867,-0.6827,-0.6835,-0.6836,-0.6848,-0.685,-0.6849,-0.6834,-0.683,-0.6849,-0.6851,-0.6854,-0.6917,-0.6855,-0.6858,-0.6859,-0.6988,-0.6991,-0.6993,0,0,0,0,0,0,-0.6821,-0.6826,-0.6865,-0.6844,-0.6849,-0.6838,-0.6852,-0.6849,-0.6856,-0.685,-0.6848,-0.6844,-0.6847,-0.6851,-0.6888,-0.6917,-0.6859,-0.6861,-0.6986,-0.6989,-0.6992,-0.7043,0,0,0,0,0,0,-0.682,-0.6826,-0.6846,-0.6845,-0.685,-0.6898,-0.6854,-0.6851,-0.686,-0.6856,-0.6859,-0.6858,-0.6846,-0.6884,-0.689,-0.6919,-0.6863,-0.6983,-0.6987,-0.6991,-0.7038,-0.7047,-0.7055,0,0,0,0,0,-0.6818,-0.6862,-0.6848,-0.6853,-0.6875,-0.69,-0.6903,-0.6887,-0.6863,-0.6883,-0.6879,-0.6858,-0.6913,-0.6889,-0.6895,-0.6925,-0.6981,-0.6986,-0.6991,-0.7035,-0.7045,-0.7054,0,0,0,0,0,0,-0.6868,-0.6861,-0.6846,-0.689,-0.6896,-0.6893,-0.6918,-0.6899,-0.6913,-0.6908,-0.6889,-0.689,-0.693,-0.6931,-0.6905,-0.6976,-0.6943,-0.6949,-0.6974,-0.6984,-0.6992,-0.6991,-0.6865,0,0,0,0,0,-0.6884,-0.6904,-0.6897,-0.6937,-0.6941,-0.6929,-0.6939,-0.6926,-0.6932,-0.6935,-0.6933,-0.694,-0.6959,-0.6972,-0.6989,-0.7038,-0.7038,-0.7062,-0.707,-0.7076,-0.7082,-0.7107,-0.7117,-0.7008,-0.7008,-0.7008,0,0,-0.6918,-0.6917,-0.6931,-0.6947,-0.695,-0.6972,-0.6931,-0.6957,-0.6972,-0.6939,-0.6973,-0.6972,-0.6979,-0.7021,-0.704,-0.7023,-0.7112,-0.7082,-0.7088,-0.709,-0.7112,-0.7123,-0.7132,-0.7011,-0.7011,-0.701,0,0,-0.6991,-0.6992,-0.7025,-0.7028,-0.7031,-0.7023,-0.7031,-0.703,-0.7027,-0.7061,-0.7035,-0.7054,-0.7087,-0.7092,-0.7099,-0.7171,-0.7152,-0.7177,-0.722,-0.7244,-0.7253,-0.726,-0.7285,-0.7294,-0.7183,-0.7183,-0.7183,0,-0.7033,-0.7064,-0.7044,-0.707,-0.7078,-0.7046,-0.7079,-0.7083,-0.7093,-0.7099,-0.708,-0.7119,-0.7121,-0.7164,-0.7181,-0.7188,-0.7196,-0.7177,-0.7253,-0.726,-0.7267,-0.729,-0.7299,-0.7186,-0.7186,-0.7185,-0.7185,0,-0.7114,-0.7136,-0.7162,-0.717,-0.718,-0.721,-0.7195,-0.7208,-0.7194,-0.7187,-0.7221,-0.7222,-0.7238,-0.7247,-0.7235,-0.7288,-0.7277,-0.7256,-0.7222,-0.728,-0.7302,-0.7311,-0.719,-0.7189,-0.7188,-0.7188,0,0,-0.7221,-0.7216,-0.7225,-0.7228,-0.7229,-0.7245,-0.7273,-0.7287,-0.7298,-0.7305,-0.7328,-0.7355,-0.7334,-0.7342,-0.733,-0.7351,-0.7406,-0.7326,-0.7326,-0.734,-0.7463,-0.7479,-0.749,-0.7393,-0.7395,-0.7396,-0.7462,0,-0.7291,-0.7336,-0.7319,-0.7366,-0.7385,-0.7354,-0.7378,-0.7381,-0.7376,-0.7391,-0.7385,-0.7404,-0.7376,-0.738,-0.74,-0.7395,-0.743,-0.739,-0.7414,-0.7415,-0.7412,-0.7501,-0.7518,-0.7581,-0.7471,-0.7472,-0.7473,0,-0.738,-0.7388,-0.7437,-0.7432,-0.7439,-0.7461,-0.7471,-0.7486,-0.7489,-0.7483,-0.7491,-0.7473,-0.75,-0.7465,-0.7502,-0.7475,-0.7483,-0.7482,-0.7484,-0.7485,-0.7447,-0.7504,-0.7601,-0.761,-0.7486,-0.7485,-0.7484,0,-0.7451,-0.7475,-0.7506,-0.7509,-0.7505,-0.7521,-0.752,-0.7521,-0.7529,-0.7539,-0.7544,-0.7557,-0.7564,-0.7574,-0.756,-0.7537,-0.7598,-0.7563,-0.7594,-0.7594,-0.7608,-0.7608,-0.7707,-0.7615,-0.7615,-0.7615,-0.7614,0,-0.7531,-0.7562,-0.7538,-0.7557,-0.759,-0.7569,-0.7603,-0.7599,-0.7599,-0.7617,-0.7593,-0.7611,-0.7591,-0.7607,-0.7597,-0.7627,-0.7631,-0.7627,-0.7624,-0.7629,-0.7629,-0.7634,-0.7629,-0.7617,-0.7617,-0.7616,-0.7616,0,-0.7616,-0.7602,-0.7633,-0.7626,-0.7625,-0.7649,-0.7643,-0.7661,-0.7652,-0.7676,-0.768,-0.7667,-0.7685,-0.7671,-0.7689,-0.7682,-0.7722,-0.7713,-0.7721,-0.7718,-0.7749,-0.7746,-0.7855,-0.7867,-0.7768,-0.7769,-0.777,0,-0.7668,-0.769,-0.7685,-0.7694,-0.7694,-0.771,-0.7718,-0.7698,-0.7708,-0.7711,-0.7728,-0.7743,-0.7754,-0.7783,-0.7776,-0.7789,-0.7779,-0.7816,-0.7781,-0.7785,-0.7779,-0.7777,-0.7779,-0.7824,-0.7825,-0.7826,-0.7826,0,-0.7761,-0.7752,-0.7764,-0.7772,-0.7782,-0.7788,-0.7793,-0.7802,-0.7782,-0.7794,-0.781,-0.7818,-0.7834,-0.7849,-0.7859,-0.7859,-0.784,-0.7837,-0.7845,-0.785,-0.7853,-0.7851,-0.7739,-0.7835,-0.7834,-0.7834,-0.7833,-0.7833,-0.7831,-0.7848,-0.7846,-0.786,-0.786,-0.7864,-0.788,-0.7872,-0.7885,-0.7896,-0.7883,-0.7903,-0.7904,-0.7915,-0.7917,-0.7932,-0.7917,-0.7928,-0.7931,-0.7934,-0.7938,-0.7851,-0.7934,-0.7934,-0.7933,-0.7933,-0.7933,0,-0.7922,-0.7918,-0.793,-0.7936,-0.7946,-0.7925,-0.7928,-0.7938,-0.7955,-0.7957,-0.7967,-0.7985,-0.7999,-0.7992,-0.8003,-0.8017,-0.8008,-0.8021,-0.8019,-0.8019,-0.7951,-0.7943,-0.8027,-0.8027,-0.8027,-0.8027,-0.8027,-0.8027,-0.797,-0.7998,-0.7989,-0.8016,-0.8013,-0.803,-0.8034,-0.8037,-0.8038,-0.8059,-0.8069,-0.8064,-0.8062,-0.8073,-0.8084,-0.8081,-0.8087,-0.8102,-0.8097,-0.8034,-0.8024,-0.8015,-0.8007,-0.8104,-0.8104,-0.8163,-0.8164,-0.8164]},{"header":{"parameterUnit":"m.s-1","parameterCategory":1,"la1":30.2991,"la2":30.254,"lo1":-89.0895,"lo2":-89.0444,"dy":0.0017,"dx":0.0017,"nx":28,"ny":28,"refTime":"2025-08-04T09:00:00:Z","depth":0,"parameterNumber":3,"parameterNumberName":"V-component_of_WINDS"},"data":[0,0,0,0,0,0,0,0,0,0,0,0,0,0,0,0,0,0,0,0,0,0,0,0,0,0,0,0,0,0,0,0,0,0,0,0,0,0,0,0,0,0,0,0,0,0,0,0,0,0,0,0,0,0,0,0,0,0,-0.9791,-0.979,0,-0.9704,-0.9703,-0.9702,-0.97,-0.9701,-0.9702,-0.9703,-0.9611,-0.9608,-0.9604,0,0,0,0,0,0,0,0,0,0,0,0,0,-0.9954,-0.9951,-0.9791,-0.979,-0.9789,-0.9704,-0.9703,-0.9701,-0.9699,-0.9701,-0.9702,-0.9703,-0.9612,-0.9608,-0.9604,0,0,0,0,0,0,0,0,0,0,0,0,0,-0.9877,-0.995,-0.9791,-0.9778,-0.9776,-0.9704,-0.9702,-0.9701,-0.9699,-0.9701,-0.9702,-0.9704,-0.9614,-0.9609,-0.9604,-0.9539,0,0,-0.9588,-0.9585,0,0,0,0,0,0,0,0,-0.9881,-0.9871,-0.9781,-0.9779,-0.9776,-0.9714,-0.9726,-0.9647,-0.9699,-0.9728,-0.9703,-0.9705,-0.9644,-0.9636,-0.9616,-0.9535,-0.9531,-0.9587,-0.9584,-0.9582,-0.958,0,0,0,0,0,0,0,-0.9886,-0.9874,-0.9757,-0.978,-0.9777,-0.9775,-0.9766,-0.9711,-0.9678,-0.9726,-0.9725,-0.9715,-0.9643,-0.9621,-0.9614,-0.9529,-0.9587,-0.9583,-0.958,-0.9578,-0.9387,-0.9385,0,0,0,0,0,0,-0.9895,-0.9879,-0.9759,-0.9754,-0.9834,-0.9771,-0.9761,-0.9732,-0.9679,-0.9672,-0.9714,-0.9715,-0.9629,-0.962,-0.9611,-0.953,-0.9582,-0.9577,-0.9574,-0.9389,-0.9387,-0.9385,0,0,0,0,0,0,-0.9898,-0.9884,-0.9763,-0.9816,-0.9801,-0.9766,-0.9735,-0.973,-0.9708,-0.967,-0.9663,-0.9698,-0.963,-0.9618,-0.9556,-0.9526,-0.9575,-0.957,-0.9392,-0.9389,-0.9386,-0.9368,0,0,0,0,0,0,-0.9903,-0.9885,-0.9861,-0.9816,-0.9798,-0.971,-0.9733,-0.9727,-0.9699,-0.9701,-0.9653,-0.9647,-0.9631,-0.9564,-0.9551,-0.952,-0.9566,-0.9394,-0.939,-0.9387,-0.9371,-0.9364,-0.9359,0,0,0,0,0,-0.9909,-0.986,-0.986,-0.9846,-0.9767,-0.9709,-0.9698,-0.9682,-0.9697,-0.9672,-0.9647,-0.9648,-0.9532,-0.9558,-0.9543,-0.951,-0.9396,-0.9391,-0.9387,-0.9373,-0.9366,-0.9359,0,0,0,0,0,0,-0.9902,-0.9854,-0.9853,-0.9788,-0.9753,-0.9709,-0.9676,-0.9674,-0.9633,-0.9636,-0.9616,-0.9605,-0.9543,-0.9521,-0.955,-0.9444,-0.9466,-0.9458,-0.946,-0.9453,-0.9447,-0.9453,-0.9562,0,0,0,0,0,-0.9894,-0.9851,-0.9811,-0.9757,-0.9739,-0.9711,-0.9685,-0.9675,-0.9637,-0.9622,-0.9592,-0.9555,-0.9509,-0.948,-0.9437,-0.9368,-0.9356,-0.9338,-0.9332,-0.9328,-0.9321,-0.928,-0.9271,-0.937,-0.937,-0.9371,0,0,-0.9875,-0.9843,-0.9817,-0.9755,-0.9726,-0.9681,-0.9698,-0.9651,-0.9616,-0.9614,-0.9553,-0.953,-0.9487,-0.9421,-0.939,-0.94,-0.9291,-0.9322,-0.9319,-0.9314,-0.9275,-0.9265,-0.9257,-0.9367,-0.9368,-0.9368,0,0,-0.9817,-0.9789,-0.974,-0.9711,-0.9667,-0.9648,-0.9637,-0.9592,-0.9577,-0.9516,-0.9512,-0.9472,-0.9395,-0.9364,-0.9338,-0.9266,-0.9265,-0.9253,-0.9222,-0.9183,-0.9175,-0.9168,-0.914,-0.913,-0.9247,-0.9246,-0.9246,0,-0.9798,-0.9731,-0.9715,-0.9667,-0.9639,-0.9635,-0.9584,-0.9557,-0.9501,-0.9481,-0.9493,-0.9395,-0.9366,-0.9291,-0.9274,-0.9254,-0.9238,-0.9257,-0.9177,-0.917,-0.9163,-0.9136,-0.9126,-0.9245,-0.9245,-0.9245,-0.9246,0,-0.971,-0.9663,-0.9629,-0.9574,-0.9543,-0.9494,-0.9469,-0.9438,-0.9431,-0.9411,-0.9347,-0.9312,-0.926,-0.9242,-0.9235,-0.9166,-0.9173,-0.9182,-0.9203,-0.9152,-0.9127,-0.9117,-0.9243,-0.9244,-0.9244,-0.9244,0,0,-0.9645,-0.9582,-0.9569,-0.9543,-0.9494,-0.9457,-0.9407,-0.9357,-0.933,-0.9292,-0.9248,-0.9183,-0.919,-0.916,-0.9149,-0.9115,-0.9058,-0.9127,-0.9126,-0.9114,-0.8977,-0.8969,-0.8957,-0.9058,-0.9056,-0.9054,-0.8979,0,-0.958,-0.9491,-0.9474,-0.9396,-0.9352,-0.9347,-0.9303,-0.9268,-0.9247,-0.9205,-0.9183,-0.9136,-0.915,-0.9132,-0.9098,-0.9072,-0.903,-0.9077,-0.9015,-0.9013,-0.9023,-0.8944,-0.8936,-0.8867,-0.897,-0.8968,-0.8967,0,-0.9492,-0.945,-0.9368,-0.9323,-0.9303,-0.9264,-0.9215,-0.9177,-0.9136,-0.9123,-0.9089,-0.9082,-0.9028,-0.9054,-0.8978,-0.9011,-0.8985,-0.8968,-0.8965,-0.8956,-0.8985,-0.8932,-0.8845,-0.8834,-0.8951,-0.8952,-0.8954,0,-0.945,-0.9373,-0.9313,-0.9292,-0.9239,-0.9211,-0.9187,-0.9148,-0.9118,-0.9075,-0.9055,-0.9007,-0.8981,-0.8943,-0.8922,-0.8943,-0.8847,-0.8872,-0.8834,-0.8834,-0.8812,-0.8813,-0.8718,-0.8799,-0.8799,-0.8799,-0.88,0,-0.9377,-0.9326,-0.9293,-0.9256,-0.9199,-0.918,-0.9123,-0.91,-0.9064,-0.9022,-0.9016,-0.8976,-0.8952,-0.8908,-0.8891,-0.883,-0.8819,-0.8806,-0.8801,-0.8805,-0.8806,-0.8786,-0.8789,-0.8797,-0.8797,-0.8798,-0.8798,0,-0.932,-0.9296,-0.923,-0.9185,-0.9172,-0.9131,-0.9091,-0.9055,-0.9034,-0.898,-0.8966,-0.8934,-0.8881,-0.8858,-0.8794,-0.8782,-0.8712,-0.8712,-0.8725,-0.8723,-0.8686,-0.8689,-0.8572,-0.8555,-0.8649,-0.8649,-0.8648,0,-0.9274,-0.9235,-0.9185,-0.9155,-0.9131,-0.9085,-0.9054,-0.9034,-0.9002,-0.8951,-0.892,-0.8868,-0.8824,-0.8741,-0.8711,-0.8662,-0.8659,-0.8622,-0.8652,-0.8655,-0.8656,-0.8657,-0.8652,-0.8616,-0.8615,-0.8614,-0.8613,0,-0.9195,-0.9185,-0.9141,-0.9092,-0.9055,-0.9016,-0.8977,-0.8954,-0.8927,-0.8891,-0.8838,-0.8804,-0.8738,-0.8686,-0.8634,-0.8609,-0.8605,-0.8604,-0.8592,-0.8594,-0.8603,-0.8595,-0.8708,-0.8607,-0.8607,-0.8608,-0.8608,-0.8608,-0.914,-0.9104,-0.9062,-0.9013,-0.8982,-0.8945,-0.8908,-0.8882,-0.8837,-0.8782,-0.8773,-0.8715,-0.8673,-0.8603,-0.8576,-0.853,-0.8539,-0.8522,-0.8518,-0.8513,-0.851,-0.8612,-0.8521,-0.8521,-0.8521,-0.8522,-0.8522,0,-0.9058,-0.9031,-0.8986,-0.8931,-0.8892,-0.8894,-0.885,-0.8817,-0.8767,-0.8728,-0.8686,-0.8623,-0.8572,-0.8538,-0.8485,-0.8455,-0.8452,-0.8442,-0.8443,-0.8436,-0.8506,-0.8521,-0.8445,-0.8445,-0.8445,-0.8445,-0.8445,-0.8445,-0.9011,-0.8949,-0.8933,-0.8855,-0.8828,-0.8772,-0.8746,-0.8712,-0.8681,-0.8612,-0.8569,-0.8547,-0.851,-0.8455,-0.8407,-0.8398,-0.8378,-0.8367,-0.8358,-0.8424,-0.8432,-0.8439,-0.8453,-0.8363,-0.8363,-0.8292,-0.8291,-0.829]}]]